Location: Saluda
(35.2377°N, 82.3468°W)
Time: 22:37:27
(UTC+00:00)

SR - Pass Details

Date: 07 October 2022
Orbit: 571 x 872 km, 66.7° (Epoch: 07 December)

Event Time Altitude Azimuth Distance (km) Brightness Sun altitude
Rises 10:22:07 0° 334° (NNW) 3,262 ? -14.5°
Reaches altitude 10° 10:24:38 10° 336° (NNW) 2,282 ? -13.9°
Maximum altitude 10:29:50 75° 62° (ENE) 730 ? -12.9°
Drops below altitude 10° 10:34:31 10° 148° (SSE) 2,066 ? -11.9°
Sets 10:36:42 0° 150° (SSE) 2,930 ? -11.5°
